User: anonymous
Location: Unspecified
(0.0000°N, 0.0000°E)
Time: 20:15:44
(UTC+02:00)
Language:

CZ-4B DEB - Orbit

View from above orbital plane
View from above orbital plane
View from above satellite
View from above satellite

Ground track
Ground track

The orbit data is extracted from the following two-line orbital elements,

1 33411U 08053D   14203.73900832  .00003948  00000-0  23619-3 0  2328
2 33411 097.5138 222.5696 0012299 133.1678 227.0583 15.11556190313661
Epoch (UTC): 22 July 2014 17:44:10
Eccentricity: 0.0012299
inclination: 97.5138°
perigee height: 523 km
apogee height: 540 km
right ascension of ascending node: 222.5696°
argument of perigee: 133.1678°
revolutions per day: 15.11556190
mean anomaly at epoch: 227.0583°
orbit number at epoch: 31366

The dashed part of the orbit path shows where the satellite is in the earth's shadow,  

DLR